• In Hungary
  • List of Countries
  • For 7 days
  • Water Temperature
  • Satellite Maps
  • Weather Map
  • News
  • Weather Widgets
  • user-avatar
    Login

    Hourly Weather Zenica

    Today, 23 October, Monday

    Time Temperature Precipitation Wind Pressure Humidity
    00:00 +8°C° 3.2 mm 3 mps 671 mmHg 95%
    01:00 +7°C° 0 mm 3 mps 670 mmHg 96%
    02:00 +5°C° 1 mm 3 mps 670 mmHg 95%
    03:00 +5°C° 1 mm 3 mps 670 mmHg 95%
    04:00 +4°C° 1 mm 3 mps 669 mmHg 94%
    05:00 +4°C° 0.5 mm 3 mps 670 mmHg 94%
    06:00 +3°C° 0.5 mm 3 mps 670 mmHg 93%
    07:00 +3°C° 0.5 mm 3 mps 670 mmHg 93%
    08:00 +3°C° 0.4 mm 4 mps 670 mmHg 91%
    09:00 +3°C° 0.4 mm 4 mps 670 mmHg 90%
    10:00 +3°C° 0.4 mm 4 mps 670 mmHg 88%
    11:00 +3°C° 0.4 mm 4 mps 671 mmHg 87%
    12:00 +4°C° 0.4 mm 4 mps 671 mmHg 86%
    13:00 +4°C° 0.4 mm 4 mps 671 mmHg 85%
    14:00 +4°C° 0.8 mm 4 mps 671 mmHg 86%
    15:00 +3°C° 0.8 mm 4 mps 671 mmHg 87%
    16:00 +3°C° 0.8 mm 4 mps 671 mmHg 89%
    17:00 +3°C° 1.2 mm 4 mps 671 mmHg 90%
    18:00 +3°C° 1.2 mm 4 mps 671 mmHg 91%
    19:00 +2°C° 1.2 mm 5 mps 672 mmHg 92%
    20:00 +2°C° 1.4 mm 5 mps 672 mmHg 92%
    21:00 +2°C° 1.4 mm 5 mps 672 mmHg 92%
    22:00 +1°C° 1.4 mm 5 mps 672 mmHg 93%
    23:00 +2°C° 1.1 mm 6 mps 672 mmHg 93%

    Tomorrow, 24 October, Tuesday

    Time Temperature Precipitation Wind Pressure Humidity
    00:00 +2°C° 1.1 mm 6 mps 672 mmHg 93%
    01:00 +2°C° 1.1 mm 6 mps 672 mmHg 93%
    02:00 +2°C° 1 mm 6 mps 672 mmHg 93%
    03:00 +2°C° 1 mm 7 mps 672 mmHg 93%
    04:00 +2°C° 1 mm 7 mps 673 mmHg 93%
    05:00 +2°C° 0.8 mm 7 mps 673 mmHg 93%
    06:00 +2°C° 0.8 mm 7 mps 673 mmHg 92%
    07:00 +2°C° 0.8 mm 7 mps 674 mmHg 92%
    08:00 +1°C° 0.3 mm 8 mps 674 mmHg 91%
    09:00 +1°C° 0.3 mm 8 mps 675 mmHg 90%
    10:00 +2°C° 0.3 mm 8 mps 675 mmHg 89%
    11:00 +2°C° 0.1 mm 8 mps 675 mmHg 88%
    12:00 +2°C° 0.1 mm 8 mps 675 mmHg 87%
    13:00 +4°C° 0.1 mm 8 mps 675 mmHg 86%
    14:00 +4°C° 0.1 mm 8 mps 675 mmHg 86%
    15:00 +4°C° 0.1 mm 8 mps 675 mmHg 86%
    16:00 +4°C° 0.1 mm 8 mps 676 mmHg 86%
    17:00 +4°C° 0.1 mm 7 mps 676 mmHg 87%
    18:00 +3°C° 0.1 mm 7 mps 677 mmHg 87%
    19:00 +3°C° 0.1 mm 7 mps 677 mmHg 87%
    20:00 +3°C° 0.1 mm 7 mps 677 mmHg 88%
    21:00 +3°C° 0.1 mm 6 mps 678 mmHg 89%
    22:00 +3°C° 0.1 mm 6 mps 678 mmHg 89%
    23:00 +2°C° 0 mm 5 mps 679 mmHg 90%

    Day after tomorrow, 25 October, Wednesday

    Time Temperature Precipitation Wind Pressure Humidity
    00:00 +2°C° 0 mm 5 mps 679 mmHg 90%
    01:00 +3°C° 0 mm 4 mps 679 mmHg 91%
    02:00 +3°C° 0 mm 4 mps 679 mmHg 91%
    03:00 +3°C° 0 mm 4 mps 680 mmHg 91%
    04:00 +2°C° 0 mm 3 mps 680 mmHg 92%
    05:00 +2°C° 0 mm 3 mps 680 mmHg 92%
    06:00 +2°C° 0 mm 3 mps 681 mmHg 92%
    07:00 +2°C° 0 mm 3 mps 681 mmHg 92%
    08:00 +3°C° 0 mm 3 mps 681 mmHg 88%
    09:00 +6°C° 0 mm 2 mps 682 mmHg 85%
    10:00 +7°C° 0 mm 2 mps 683 mmHg 81%
    11:00 +8°C° 0 mm 2 mps 683 mmHg 78%
    12:00 +8°C° 0 mm 2 mps 683 mmHg 75%
    13:00 +9°C° 0 mm 2 mps 683 mmHg 72%
    14:00 +9°C° 0 mm 2 mps 683 mmHg 74%
    15:00 +8°C° 0 mm 2 mps 683 mmHg 76%
    16:00 +8°C° 0 mm 2 mps 683 mmHg 78%
    17:00 +8°C° 0 mm 1 mps 683 mmHg 82%
    18:00 +6°C° 0 mm 1 mps 683 mmHg 87%
    19:00 +5°C° 0 mm 1 mps 683 mmHg 91%
    20:00 +5°C° 0 mm 1 mps 683 mmHg 91%
    21:00 +5°C° 0 mm 1 mps 684 mmHg 91%
    22:00 +4°C° 0 mm 1 mps 684 mmHg 91%
    23:00 +4°C° 0 mm 1 mps 684 mmHg 90%

    26 October, Thursday

    Time Temperature Precipitation Wind Pressure Humidity
    00:00 +4°C° 0 mm 1 mps 684 mmHg 89%
    01:00 +4°C° 0 mm 1 mps 684 mmHg 88%
    02:00 +4°C° 0 mm 1 mps 684 mmHg 87%
    03:00 +4°C° 0 mm 1 mps 684 mmHg 85%
    04:00 +4°C° 0 mm 1 mps 684 mmHg 84%
    05:00 +4°C° 0 mm 1 mps 684 mmHg 82%
    06:00 +5°C° 0 mm 1 mps 684 mmHg 80%
    07:00 +5°C° 0 mm 1 mps 684 mmHg 78%
    08:00 +8°C° 0 mm 1 mps 685 mmHg 68%
    09:00 +11°C° 0 mm 1 mps 685 mmHg 59%
    10:00 +14°C° 0 mm 1 mps 686 mmHg 49%
    11:00 +15°C° 0 mm 1 mps 686 mmHg 46%
    12:00 +16°C° 0 mm 1 mps 686 mmHg 43%
    13:00 +18°C° 0 mm 1 mps 686 mmHg 39%
    14:00 +15°C° 0 mm 0 mps 685 mmHg 46%
    15:00 +14°C° 0 mm 0 mps 685 mmHg 52%
    16:00 +12°C° 0 mm 0 mps 684 mmHg 59%
    17:00 +11°C° 0 mm 0 mps 684 mmHg 61%
    18:00 +10°C° 0 mm 1 mps 684 mmHg 63%
    19:00 +9°C° 0 mm 1 mps 683 mmHg 66%
    20:00 +9°C° 0 mm 1 mps 683 mmHg 65%
    21:00 +9°C° 0 mm 1 mps 683 mmHg 64%
    22:00 +9°C° 0 mm 1 mps 683 mmHg 64%
    23:00 +8°C° 0 mm 1 mps 683 mmHg 63%

    27 October, Friday

    Time Temperature Precipitation Wind Pressure Humidity
    00:00 +8°C° 0 mm 1 mps 682 mmHg 62%
    01:00 +8°C° 0 mm 1 mps 682 mmHg 61%
    02:00 +8°C° 0 mm 1 mps 682 mmHg 61%
    03:00 +8°C° 0 mm 1 mps 681 mmHg 60%
    04:00 +8°C° 0 mm 1 mps 681 mmHg 60%
    05:00 +8°C° 0 mm 1 mps 681 mmHg 60%
    06:00 +8°C° 0 mm 1 mps 680 mmHg 59%
    07:00 +8°C° 0 mm 1 mps 680 mmHg 59%
    08:00 +11°C° 0 mm 1 mps 681 mmHg 54%
    09:00 +13°C° 0 mm 1 mps 681 mmHg 49%
    10:00 +16°C° 0 mm 1 mps 681 mmHg 45%
    11:00 +18°C° 0 mm 1 mps 681 mmHg 43%
    12:00 +19°C° 0 mm 1 mps 680 mmHg 42%
    13:00 +19°C° 0 mm 1 mps 680 mmHg 41%
    14:00 +18°C° 0 mm 1 mps 679 mmHg 48%
    15:00 +16°C° 0 mm 1 mps 678 mmHg 55%
    16:00 +14°C° 0 mm 1 mps 677 mmHg 62%
    17:00 +12°C° 0 mm 1 mps 677 mmHg 67%
    18:00 +11°C° 0 mm 1 mps 677 mmHg 72%
    19:00 +8°C° 0 mm 0 mps 676 mmHg 78%
    20:00 +9°C° 0 mm 1 mps 677 mmHg 79%
    21:00 +9°C° 0 mm 1 mps 677 mmHg 79%
    22:00 +8°C° 0 mm 2 mps 677 mmHg 80%
    23:00 +7°C° 0.7 mm 2 mps 677 mmHg 84%

    28 October, Saturday

    Time Temperature Precipitation Wind Pressure Humidity
    00:00 +7°C° 0.7 mm 3 mps 678 mmHg 88%
    01:00 +5°C° 0.7 mm 4 mps 678 mmHg 92%
    02:00 +5°C° 0.2 mm 3 mps 678 mmHg 90%
    03:00 +5°C° 0.2 mm 2 mps 677 mmHg 89%
    04:00 +4°C° 0.2 mm 2 mps 677 mmHg 88%
    05:00 +4°C° 0 mm 2 mps 677 mmHg 88%
    06:00 +4°C° 0 mm 2 mps 677 mmHg 88%
    07:00 +4°C° 0 mm 2 mps 677 mmHg 88%
    08:00 +5°C° 0 mm 2 mps 677 mmHg 82%
    09:00 +5°C° 0 mm 3 mps 678 mmHg 76%
    10:00 +7°C° 0 mm 3 mps 678 mmHg 69%
    11:00 +7°C° 0 mm 3 mps 678 mmHg 66%
    12:00 +7°C° 0 mm 3 mps 677 mmHg 62%
    13:00 +8°C° 0 mm 3 mps 677 mmHg 59%
    14:00 +7°C° 0 mm 2 mps 676 mmHg 61%
    15:00 +7°C° 0 mm 2 mps 676 mmHg 62%
    16:00 +7°C° 0 mm 1 mps 675 mmHg 64%
    17:00 +6°C° 0 mm 1 mps 675 mmHg 67%
    18:00 +5°C° 0 mm 1 mps 675 mmHg 70%
    19:00 +4°C° 0 mm 1 mps 675 mmHg 73%
    20:00 +5°C° 0 mm 1 mps 675 mmHg 72%
    21:00 +5°C° 0 mm 1 mps 675 mmHg 71%
    22:00 +5°C° 0 mm 1 mps 675 mmHg 70%
    23:00 +5°C° 0 mm 1 mps 675 mmHg 69%

    29 October, Sunday

    Time Temperature Precipitation Wind Pressure Humidity
    00:00 +4°C° 0 mm 2 mps 674 mmHg 68%
    01:00 +4°C° 0 mm 2 mps 674 mmHg 67%
    02:00 +4°C° 0 mm 2 mps 674 mmHg 67%
    03:00 +4°C° 0 mm 2 mps 674 mmHg 66%
    04:00 +4°C° 0 mm 2 mps 674 mmHg 66%
    05:00 +4°C° 0 mm 2 mps 674 mmHg 67%
    06:00 +4°C° 0 mm 2 mps 675 mmHg 68%
    07:00 +4°C° 0 mm 2 mps 675 mmHg 69%
    08:00 +4°C° 0 mm 3 mps 676 mmHg 64%
    09:00 +6°C° 0 mm 5 mps 676 mmHg 59%
    10:00 +7°C° 0 mm 6 mps 677 mmHg 55%
    11:00 +7°C° 0.1 mm 6 mps 677 mmHg 53%
    12:00 +8°C° 0.1 mm 6 mps 677 mmHg 52%
    13:00 +8°C° 0.1 mm 6 mps 677 mmHg 51%
    14:00 +7°C° 0 mm 5 mps 677 mmHg 56%
    15:00 +7°C° 0 mm 3 mps 677 mmHg 61%
    16:00 +6°C° 0 mm 2 mps 677 mmHg 65%
    17:00 +5°C° 0 mm 2 mps 677 mmHg 71%
    18:00 +5°C° 0 mm 1 mps 678 mmHg 77%
    19:00 +4°C° 0 mm 1 mps 678 mmHg 82%
    20:00 +4°C° 0 mm 1 mps 678 mmHg 83%
    21:00 +3°C° 0 mm 1 mps 678 mmHg 85%
    22:00 +3°C° 0 mm 1 mps 679 mmHg 86%
    23:00 +2°C° 0 mm 1 mps 678 mmHg 86%
    Show more